• In Belgien
  • Länderverzeichnis
  • Für 7 Tage
  • Wassertemperatur
  • Satellitenkarten
  • Wetterkarte
  • Widgets
  • user-avatar
    Anmelden

    Stündliche Wetter Pechetovo

    Heute, 23 Juli, Montag

    Zeit Temperatur Niederschläge Wind Luftdruck Luftfeuchtigkeit
    00:00 +17°C° 0 mm 2 m/S 746 mmHg 96%
    01:00 +17°C° 0 mm 2 m/S 746 mmHg 97%
    02:00 +16°C° 0 mm 2 m/S 746 mmHg 98%
    03:00 +17°C° 0 mm 2 m/S 746 mmHg 97%
    04:00 +17°C° 0 mm 2 m/S 746 mmHg 96%
    05:00 +17°C° 0 mm 3 m/S 746 mmHg 95%
    06:00 +19°C° 0 mm 3 m/S 746 mmHg 90%
    07:00 +20°C° 0 mm 3 m/S 747 mmHg 84%
    08:00 +21°C° 0 mm 4 m/S 747 mmHg 80%
    09:00 +22°C° 0,1 mm 4 m/S 747 mmHg 76%
    10:00 +23°C° 0,1 mm 4 m/S 747 mmHg 73%
    11:00 +25°C° 0,1 mm 4 m/S 747 mmHg 69%
    12:00 +25°C° 0,3 mm 4 m/S 746 mmHg 68%
    13:00 +26°C° 0,3 mm 4 m/S 746 mmHg 67%
    14:00 +26°C° 0,3 mm 4 m/S 746 mmHg 66%
    15:00 +26°C° 0,2 mm 4 m/S 746 mmHg 68%
    16:00 +25°C° 0,2 mm 3 m/S 746 mmHg 69%
    17:00 +25°C° 0,2 mm 3 m/S 746 mmHg 70%
    18:00 +24°C° 0 mm 3 m/S 746 mmHg 75%
    19:00 +21°C° 0 mm 3 m/S 747 mmHg 79%
    20:00 +19°C° 0 mm 3 m/S 747 mmHg 84%
    21:00 +18°C° 0 mm 3 m/S 747 mmHg 87%
    22:00 +17°C° 0 mm 2 m/S 747 mmHg 90%
    23:00 +16°C° 0 mm 2 m/S 747 mmHg 93%

    Morgen, 24 Juli, Dienstag

    Zeit Temperatur Niederschläge Wind Luftdruck Luftfeuchtigkeit
    00:00 +15°C° 0 mm 2 m/S 747 mmHg 94%
    01:00 +15°C° 0 mm 2 m/S 747 mmHg 95%
    02:00 +14°C° 0 mm 2 m/S 747 mmHg 96%
    03:00 +15°C° 0 mm 2 m/S 747 mmHg 95%
    04:00 +14°C° 0 mm 3 m/S 747 mmHg 94%
    05:00 +16°C° 0 mm 3 m/S 747 mmHg 92%
    06:00 +16°C° 0 mm 3 m/S 747 mmHg 91%
    07:00 +17°C° 0 mm 3 m/S 747 mmHg 90%
    08:00 +17°C° 0 mm 3 m/S 748 mmHg 89%
    09:00 +17°C° 0,1 mm 3 m/S 748 mmHg 89%
    10:00 +17°C° 0,1 mm 3 m/S 748 mmHg 89%
    11:00 +18°C° 0,1 mm 3 m/S 748 mmHg 89%
    12:00 +19°C° 0 mm 3 m/S 748 mmHg 87%
    13:00 +19°C° 0 mm 3 m/S 748 mmHg 84%
    14:00 +20°C° 0 mm 3 m/S 748 mmHg 82%
    15:00 +20°C° 0 mm 3 m/S 748 mmHg 83%
    16:00 +20°C° 0 mm 3 m/S 748 mmHg 84%
    17:00 +20°C° 0 mm 3 m/S 748 mmHg 85%
    18:00 +20°C° 0 mm 2 m/S 748 mmHg 88%
    19:00 +19°C° 0 mm 2 m/S 748 mmHg 91%
    20:00 +19°C° 0 mm 2 m/S 748 mmHg 94%
    21:00 +19°C° 0 mm 2 m/S 748 mmHg 95%
    22:00 +18°C° 0 mm 2 m/S 748 mmHg 96%
    23:00 +18°C° 0 mm 2 m/S 748 mmHg 97%

    übermorgen, 25 Juli, Mittwoch

    Zeit Temperatur Niederschläge Wind Luftdruck Luftfeuchtigkeit
    00:00 +18°C° 0 mm 2 m/S 748 mmHg 97%
    01:00 +18°C° 0 mm 2 m/S 748 mmHg 97%
    02:00 +18°C° 0 mm 2 m/S 748 mmHg 98%
    03:00 +18°C° 0 mm 2 m/S 749 mmHg 97%
    04:00 +18°C° 0 mm 2 m/S 749 mmHg 96%
    05:00 +18°C° 0 mm 3 m/S 749 mmHg 95%
    06:00 +19°C° 0 mm 3 m/S 749 mmHg 91%
    07:00 +20°C° 0 mm 3 m/S 749 mmHg 88%
    08:00 +21°C° 0 mm 3 m/S 750 mmHg 84%
    09:00 +22°C° 0 mm 3 m/S 750 mmHg 80%
    10:00 +24°C° 0 mm 3 m/S 750 mmHg 75%
    11:00 +25°C° 0 mm 3 m/S 750 mmHg 71%
    12:00 +26°C° 0,2 mm 4 m/S 750 mmHg 65%
    13:00 +27°C° 0,2 mm 4 m/S 750 mmHg 60%
    14:00 +28°C° 0,2 mm 4 m/S 750 mmHg 55%
    15:00 +27°C° 0,1 mm 4 m/S 750 mmHg 56%
    16:00 +26°C° 0,1 mm 4 m/S 750 mmHg 58%
    17:00 +26°C° 0,1 mm 4 m/S 750 mmHg 60%
    18:00 +23°C° 0 mm 4 m/S 750 mmHg 64%
    19:00 +21°C° 0 mm 4 m/S 750 mmHg 68%
    20:00 +19°C° 0 mm 3 m/S 750 mmHg 72%
    21:00 +18°C° 0 mm 3 m/S 750 mmHg 76%
    22:00 +17°C° 0 mm 3 m/S 750 mmHg 80%
    23:00 +17°C° 0 mm 2 m/S 751 mmHg 84%

    26 Juli, Donnerstag

    Zeit Temperatur Niederschläge Wind Luftdruck Luftfeuchtigkeit
    00:00 +17°C° 0 mm 2 m/S 750 mmHg 85%
    01:00 +17°C° 0 mm 2 m/S 750 mmHg 86%
    02:00 +17°C° 0 mm 2 m/S 750 mmHg 87%
    03:00 +17°C° 0,1 mm 2 m/S 751 mmHg 89%
    04:00 +17°C° 0,1 mm 2 m/S 751 mmHg 92%
    05:00 +17°C° 0,1 mm 2 m/S 751 mmHg 94%
    06:00 +18°C° 0,1 mm 3 m/S 751 mmHg 92%
    07:00 +19°C° 0,1 mm 3 m/S 751 mmHg 90%
    08:00 +20°C° 0,1 mm 3 m/S 751 mmHg 89%
    09:00 +21°C° 0 mm 3 m/S 751 mmHg 84%
    10:00 +22°C° 0 mm 3 m/S 751 mmHg 80%
    11:00 +24°C° 0 mm 3 m/S 751 mmHg 76%
    12:00 +25°C° 0,1 mm 3 m/S 751 mmHg 74%
    13:00 +26°C° 0,1 mm 3 m/S 751 mmHg 71%
    14:00 +27°C° 0,1 mm 3 m/S 751 mmHg 69%
    15:00 +27°C° 0,1 mm 3 m/S 751 mmHg 69%
    16:00 +27°C° 0,1 mm 2 m/S 751 mmHg 70%
    17:00 +27°C° 0,1 mm 2 m/S 751 mmHg 70%
    18:00 +26°C° 0,1 mm 2 m/S 751 mmHg 74%
    19:00 +24°C° 0,1 mm 2 m/S 751 mmHg 78%
    20:00 +23°C° 0,1 mm 2 m/S 751 mmHg 81%
    21:00 +22°C° 0,1 mm 1 m/S 751 mmHg 82%
    22:00 +21°C° 0,1 mm 1 m/S 751 mmHg 82%
    23:00 +21°C° 0,1 mm 1 m/S 751 mmHg 82%

    27 Juli, Freitag

    Zeit Temperatur Niederschläge Wind Luftdruck Luftfeuchtigkeit
    00:00 +20°C° 0,2 mm 1 m/S 751 mmHg 85%
    01:00 +19°C° 0,2 mm 1 m/S 751 mmHg 88%
    02:00 +19°C° 0,2 mm 1 m/S 751 mmHg 91%
    03:00 +19°C° 0,1 mm 1 m/S 751 mmHg 92%
    04:00 +20°C° 0,1 mm 1 m/S 751 mmHg 93%
    05:00 +20°C° 0,1 mm 1 m/S 751 mmHg 94%
    06:00 +21°C° 0 mm 1 m/S 751 mmHg 90%
    07:00 +23°C° 0 mm 1 m/S 751 mmHg 87%
    08:00 +24°C° 0 mm 1 m/S 751 mmHg 83%
    09:00 +25°C° 0,4 mm 1 m/S 751 mmHg 79%
    10:00 +26°C° 0,4 mm 1 m/S 751 mmHg 74%
    11:00 +28°C° 0,4 mm 2 m/S 751 mmHg 70%
    12:00 +29°C° 0,2 mm 1 m/S 751 mmHg 65%
    13:00 +30°C° 0,2 mm 1 m/S 750 mmHg 61%
    14:00 +30°C° 0,2 mm 1 m/S 750 mmHg 56%
    15:00 +30°C° 0,5 mm 1 m/S 750 mmHg 60%
    16:00 +30°C° 0,5 mm 1 m/S 750 mmHg 64%
    17:00 +29°C° 0,5 mm 1 m/S 750 mmHg 68%
    18:00 +27°C° 1 mm 1 m/S 750 mmHg 74%
    19:00 +25°C° 1 mm 1 m/S 750 mmHg 81%
    20:00 +23°C° 1 mm 1 m/S 750 mmHg 87%
    21:00 +21°C° 0,1 mm 0 m/S 750 mmHg 88%
    22:00 +20°C° 0,1 mm 0 m/S 750 mmHg 89%
    23:00 +20°C° 0,1 mm 0 m/S 750 mmHg 90%

    28 Juli, Samstag

    Zeit Temperatur Niederschläge Wind Luftdruck Luftfeuchtigkeit
    00:00 +20°C° 0,6 mm 0 m/S 750 mmHg 91%
    01:00 +21°C° 0,6 mm 1 m/S 750 mmHg 92%
    02:00 +21°C° 0,6 mm 1 m/S 750 mmHg 93%
    03:00 +21°C° 0,2 mm 1 m/S 750 mmHg 93%
    04:00 +21°C° 0,2 mm 1 m/S 750 mmHg 94%
    05:00 +21°C° 0,2 mm 1 m/S 750 mmHg 94%
    06:00 +22°C° 0,2 mm 1 m/S 750 mmHg 93%
    07:00 +23°C° 0,2 mm 1 m/S 750 mmHg 91%
    08:00 +23°C° 0,2 mm 1 m/S 750 mmHg 90%
    09:00 +24°C° 0,7 mm 2 m/S 750 mmHg 86%
    10:00 +25°C° 0,7 mm 2 m/S 750 mmHg 83%
    11:00 +26°C° 0,7 mm 3 m/S 750 mmHg 80%
    12:00 +26°C° 1,4 mm 3 m/S 750 mmHg 81%
    13:00 +26°C° 1,4 mm 3 m/S 750 mmHg 83%
    14:00 +26°C° 1,4 mm 3 m/S 751 mmHg 84%
    15:00 +25°C° 0,5 mm 3 m/S 751 mmHg 85%
    16:00 +24°C° 0,5 mm 3 m/S 751 mmHg 87%
    17:00 +24°C° 0,5 mm 3 m/S 751 mmHg 88%
    18:00 +22°C° 0,4 mm 4 m/S 751 mmHg 90%
    19:00 +21°C° 0,4 mm 4 m/S 751 mmHg 92%
    20:00 +20°C° 0,4 mm 4 m/S 751 mmHg 93%
    21:00 +20°C° 0,1 mm 4 m/S 752 mmHg 93%
    22:00 +19°C° 0,1 mm 4 m/S 752 mmHg 93%
    23:00 +19°C° 0,1 mm 4 m/S 752 mmHg 93%
    Mehr zeigen